RH
25 26 26 25 21 17 16 16 15 14 14 14 14 17 21 23 22 22 21 21 21 21 21 23 26 29 31 33 34 35 36 37 37 37 38 38 38 39 41 42 44 44
27 28 27 27 25 21 17 16 17 17 15 14 15 19 26 26 24 23 22 22 22 21 21 22 26 29 32 32 32 33 35 36 36 36 37 38 38 39 40 41 41 43
29 31 30 29 28 25 21 18 18 18 16 14 16 22 27 27 25 24 22 22 22 22 23 24 27 30 32 32 32 32 32 34 35 36 37 38 40 41 41 41 41 43
30 33 33 33 31 28 26 21 17 16 14 14 17 21 23 24 25 23 21 21 21 22 24 26 31 34 34 35 36 34 33 33 35 37 39 40 41 41 41 41 42 45
30 33 37 39 34 30 29 24 17 15 16 17 19 21 22 24 26 24 23 22 22 24 25 27 32 36 36 38 39 38 37 37 37 39 39 40 40 41 42 42 42 45
30 34 42 45 38 32 31 24 17 16 18 19 21 22 24 27 27 26 26 27 27 27 27 27 30 34 35 37 40 41 41 41 41 40 40 41 44 45 44 44 45 48
30 36 45 47 41 36 31 23 18 19 20 21 22 24 26 27 27 27 28 29 30 30 30 29 30 33 35 37 40 42 43 44 43 41 40 45 51 52 50 51 54 53
33 40 47 49 46 39 29 22 21 22 22 22 24 25 26 26 27 27 27 30 31 31 31 32 33 35 36 38 41 43 44 44 44 41 41 44 49 51 51 53 57 56
38 47 53 54 49 37 27 23 23 24 24 24 25 26 25 25 27 28 28 31 32 31 31 34 36 37 38 39 41 42 42 41 41 40 41 42 44 48 50 53 57 58
44 55 59 54 45 34 25 24 25 26 26 25 25 26 26 27 29 31 32 33 32 31 32 34 37 38 38 39 39 40 39 38 40 42 42 42 43 44 47 50 52 51
51 60 57 47 39 30 25 25 28 28 27 26 26 27 27 29 31 33 34 34 33 33 34 35 38 38 38 37 37 38 38 37 42 46 45 43 43 43 42 44 44 42
59 63 54 42 35 28 24 26 28 27 25 25 25 25 26 30 32 33 34 34 35 35 35 37 38 38 38 37 37 38 38 40 45 48 45 42 42 42 40 40 40 40
62 61 53 41 32 26 23 24 23 22 21 21 23 24 27 30 31 32 33 33 34 35 35 37 37 37 38 39 39 40 40 42 44 45 43 42 42 43 41 40 41 43
57 52 45 36 28 24 24 23 21 19 19 21 23 25 28 29 30 31 32 33 33 33 34 35 36 37 39 40 41 42 44 44 44 43 43 43 45 45 44 43 44 45
53 45 39 31 26 25 24 22 20 19 20 22 24 25 27 28 29 30 33 34 35 34 34 36 37 40 41 42 43 46 46 45 43 43 44 46 48 47 46 45 45 46
50 41 35 28 26 25 24 22 21 20 22 24 25 27 28 28 29 31 33 36 37 36 36 37 39 41 43 43 44 46 46 45 44 45 46 49 50 49 48 46 46 48
47 39 32 27 26 25 24 24 22 21 24 27 28 30 32 33 31 30 35 39 39 38 38 40 43 44 43 43 44 46 46 45 46 46 48 50 51 50 49 47 46 48
43 36 30 27 25 25 25 26 26 26 28 29 30 32 35 37 36 34 36 40 40 40 41 42 44 45 44 44 45 46 46 45 47 48 48 51 52 52 50 48 46 47
39 32 28 27 25 25 27 28 30 32 32 33 34 35 37 40 40 39 39 41 41 41 41 43 44 46 45 44 44 44 44 44 47 48 49 52 55 54 52 50 48 47
35 30 27 26 24 25 27 29 31 32 34 34 35 36 38 40 41 43 43 43 43 43 42 44 46 46 45 43 43 45 44 43 44 47 49 53 56 57 55 53 51 49
31 27 26 25 25 26 26 28 29 30 31 33 33 35 39 41 41 43 45 45 45 44 43 45 45 45 45 43 43 45 45 43 43 47 51 55 58 58 56 54 52 51
28 27 26 26 27 27 27 28 29 29 31 32 34 37 41 42 42 43 45 47 47 46 44 43 44 46 47 45 44 46 46 42 43 49 53 58 61 60 56 55 53 52
29 28 28 28 29 32 33 33 33 33 34 36 39 40 42 44 45 45 47 49 50 48 45 43 44 47 50 49 48 50 48 43 43 50 56 60 61 59 56 54 53 53
30 29 30 31 32 35 36 37 37 37 38 41 43 45 46 47 49 50 49 50 52 51 48 48 49 49 49 50 53 55 53 48 45 49 56 59 58 57 55 52 51 53
30 30 31 32 35 37 39 41 41 40 43 47 49 51 52 52 54 54 51 51 54 54 53 55 56 54 53 54 57 60 57 52 49 50 54 57 56 55 54 50 50 52
31 32 33 34 35 38 40 43 47 52 57 63 64 63 63 62 61 60 57 57 57 57 59 60 58 59 60 59 58 60 59 54 52 53 55 56 55 54 53 51 51 52